Flag for U.S.A. Weather past 2 weeks in Provincetown, Massachusetts, U.S.A.

52 °F

Passing clouds.

Feels Like: 46 °F
Forecast: 47 / 57 °F
Wind: 17 mph from North

Location: Provincetown Weather Reporting Station

Current Time: Oct 10, 2015 at 6:52:22 AM

Latest Report: Oct 10, 2015 at 6:15 AM

Visibility: 10 mi

Pressure: 29.98 "Hg

Humidity: 58%

Dew point: 37 °F

Location of ProvincetownLocation

Historic Weather in Provincetown — Graph


Provincetown temperature yesterday

Maximum temperature yesterday: 66 °F (at 11:55 AM)
Minimum temperature yesterday: 50 °F (at 12:15 AM)
Average temperature yesterday: 60 °F

Past Weeks' High & Low Weather Summary

High79 °F (Sep 29, 1:15 PM)83% (Sep 28, 8:15 AM)30.52 "Hg (Sep 28, 8:15 AM)
Low36 °F (Sep 27, 4:35 AM)48% (Oct 8, 11:35 AM)29.70 "Hg (Sep 30, 3:15 PM)
Average58 °F68%30.17 "Hg
* Reported Sep 25 5:15 AM — Oct 10 5:55 AM, Provincetown, Weather by CustomWeather, © 2015

Note: Actual official high and low records may vary slightly from our data, if they occured in-between our weather recording intervals... More about our weather records


Provincetown weather history for previous 24 hours

Time TempWeatherWind HumidityBarometerVisibility
5:55 AM
Sat, Oct 10
52 °FPassing clouds.17 mph58%29.97 "Hg10 mi
5:35 AM52 °FPassing clouds.18 mph58%29.97 "Hg10 mi
5:15 AM52 °FPassing clouds.18 mph58%29.96 "Hg10 mi
4:55 AM52 °FPassing clouds.22 mph58%29.94 "Hg10 mi
4:35 AM52 °FClear.22 mph58%29.93 "Hg10 mi
4:15 AM52 °FClear.26 mph58%29.92 "Hg10 mi
3:55 AM52 °FClear.25 mph58%29.91 "Hg10 mi
3:35 AM52 °FClear.25 mph58%29.90 "Hg10 mi
3:15 AM54 °FClear.24 mph58%29.89 "Hg10 mi
2:55 AM54 °FClear.21 mph58%29.89 "Hg10 mi
2:35 AM54 °FClear.28 mph58%29.87 "Hg10 mi
2:15 AM54 °FPassing clouds.25 mph58%29.85 "Hg10 mi
1:55 AM57 °FPassing clouds.22 mph59%29.82 "Hg10 mi
1:35 AM57 °FOvercast.22 mph63%29.81 "Hg10 mi
1:15 AM59 °FPassing clouds.25 mph63%29.80 "Hg10 mi
12:55 AM61 °FPassing clouds.15 mph68%29.78 "Hg10 mi
12:35 AM61 °FClear.14 mph72%29.77 "Hg10 mi
12:15 AM61 °FPassing clouds.10 mph72%29.76 "Hg10 mi
11:55 PM
Fri, Oct 9
61 °FMostly cloudy.13 mph77%29.75 "Hg10 mi
11:35 PM61 °FPassing clouds.10 mph77%29.75 "Hg10 mi
11:15 PM61 °FMostly cloudy.10 mph77%29.75 "Hg10 mi
10:55 PM61 °FMostly cloudy.9 mph77%29.74 "Hg8 mi
10:35 PM63 °FOvercast.9 mph73%29.74 "Hg10 mi
10:15 PM63 °FOvercast.8 mph73%29.73 "Hg9 mi
9:55 PM63 °FOvercast.8 mph73%29.73 "Hg8 mi
9:35 PM63 °FMostly cloudy.7 mph73%29.73 "Hg9 mi
9:15 PM61 °FOvercast.7 mph77%29.74 "Hg8 mi
8:55 PM63 °FOvercast.8 mph77%29.73 "Hg10 mi
8:35 PM63 °FPartly cloudy.12 mph77%29.73 "Hg10 mi
8:15 PM63 °FOvercast.12 mph73%29.73 "Hg7 mi
7:55 PM63 °FMostly cloudy.13 mph77%29.74 "Hg4 mi
7:35 PM63 °FPartly cloudy.16 mph77%29.74 "Hg3 mi
7:15 PM63 °FOvercast.16 mph77%29.74 "Hg3 mi
6:55 PM63 °FCloudy.17 mph77%29.74 "Hg3 mi
6:35 PM63 °FMostly cloudy.16 mph77%29.74 "Hg5 mi
6:15 PM63 °FOvercast.15 mph73%29.74 "Hg5 mi
5:15 PM64 °FOvercast.14 mph68%29.76 "Hg10 mi
4:55 PM64 °FOvercast.16 mph64%29.77 "Hg10 mi
4:35 PM64 °FOvercast.17 mph64%29.78 "Hg10 mi
4:15 PM64 °FOvercast.17 mph64%29.78 "Hg10 mi
3:55 PM64 °FMostly cloudy.18 mph64%29.79 "Hg10 mi
3:35 PM64 °FMostly cloudy.20 mph64%29.80 "Hg10 mi
3:15 PM64 °FMostly cloudy.18 mph64%29.81 "Hg10 mi
2:55 PM64 °FOvercast.15 mph60%29.83 "Hg10 mi
2:35 PM66 °FMostly cloudy.17 mph56%29.83 "Hg10 mi
2:15 PM66 °FMostly cloudy.20 mph56%29.84 "Hg10 mi
1:55 PM66 °FPartly sunny.18 mph52%29.85 "Hg10 mi
1:35 PM66 °FPartly sunny.21 mph52%29.86 "Hg10 mi
1:15 PM64 °FMostly cloudy.18 mph56%29.88 "Hg10 mi
12:55 PM64 °FPartly sunny.21 mph56%29.90 "Hg10 mi
12:35 PM66 °FPartly sunny.20 mph52%29.91 "Hg10 mi
12:15 PM66 °FSunny.17 mph52%29.92 "Hg10 mi
11:55 AM66 °FScattered clouds.18 mph52%29.93 "Hg10 mi
11:35 AM64 °FPartly sunny.18 mph52%29.95 "Hg10 mi
11:15 AM64 °FPartly sunny.16 mph52%29.97 "Hg10 mi
10:35 AM63 °FSunny.14 mph56%29.99 "Hg10 mi
10:15 AM63 °FPassing clouds.16 mph56%30.00 "Hg10 mi
9:55 AM61 °FPartly sunny.16 mph59%30.02 "Hg10 mi
9:35 AM61 °FPartly sunny.17 mph59%30.03 "Hg10 mi
9:15 AM61 °FPartly sunny.16 mph59%30.03 "Hg10 mi
8:55 AM59 °FPartly sunny.10 mph63%30.05 "Hg10 mi
8:35 AM57 °FOvercast.13 mph67%30.05 "Hg10 mi
8:15 AM57 °FOvercast.9 mph67%30.06 "Hg10 mi
7:55 AM57 °FMore clouds than sun.13 mph67%30.06 "Hg10 mi
7:35 AM55 °FMostly cloudy.10 mph67%30.06 "Hg10 mi
7:15 AM55 °FPassing clouds.9 mph67%30.07 "Hg10 mi
6:55 AM55 °FPassing clouds.9 mph67%30.07 "Hg10 mi
6:35 AM55 °FOvercast.12 mph67%30.07 "Hg10 mi
6:15 AM55 °FOvercast.10 mph67%30.07 "Hg10 mi
Weather by CustomWeather, © 2015

See weather overviewHow to use our weather pages